Location: Gaast
(52.9002°N, 5.8891°E)
Time: 08:55:50
(UTC+00:00)

ATLAS 2AS CENTAUR R/B - Pass Details

Date: 18 November 2025
Orbit: 1047 x 1163 km, 63.7° (Epoch: 11 December)

Event Time Altitude Azimuth Distance (km) Brightness Sun altitude
Rises 19:20:38 0° 313° (NW) 3,849 6.4 -33.2°
Reaches altitude 10° 19:23:19 10° 310° (NW) 2,882 5.6 -33.6°
Enters shadow 19:29:41 58° 244° (WSW) 1,207 3.0 -34.5°
